Regional Weather Roundup
Issued by NWS Charleston, SC

Home | Current Version | Previous Version | Text Only | Print | Product List | Glossary On
Versions: 1 2 3 4 5 6 7 8 9 10 11 12 13 14 15 16 17 18 19 20 21 22 23 24 25 26 27 28 29 30 31 32 33 34 35 36 37 38 39 40 41 42 43 44 45 46 47 48 49 50
000
ASUS42 KCHS 201225
RWRCHS

REGIONAL WEATHER ROUNDUP
NATIONAL WEATHER SERVICE CHARLESTON SC
800 AM EDT WED AUG 20 2014

NOTE: "FAIR" INDICATES FEW OR NO CLOUDS BELOW 12,000 FEET WITH NO
SIGNIFICANT WEATHER AND/OR OBSTRUCTIONS TO VISIBILITY.

NOT ALL STATIONS ARE QUALITY CONTROLLED BY THE NATIONAL
WEATHER SERVICE. USE DATA WITH CAUTION...ESPECIALLY
DEWPOINT OBSERVATIONS.

SCZ027-030-031-034>040-042>050-201300-
...SOUTH CAROLINA...

CITY           SKY/WX    TMP DP  RH WIND       PRES   REMARKS
N CHARLESTON   MOSUNNY   77  72  84 W6        29.97R
6HR MIN TEMP:  75; 6HR MAX TEMP:  78;

WATERFRONT PRK   N/A     75 N/A N/A W7          N/A
FORT JOHNSON   NOT AVBL
MOUNT PLEASANT FAIR      77  73  88 W6        29.97R FOG
JOHNS ISLAND   SUNNY     79  75  89 W6        29.97R
PINOPOLIS        N/A     77  73  88 W8        29.88R
MONCKS CORNER    N/A     75  75 100 SW5       29.97R FOG
SUMMERVILLE    FAIR      73  73 100 CALM      29.98R
BEAUFORT MCAS  MOSUNNY   76  72  87 NW8       29.99R
6HR MIN TEMP:  74; 6HR MAX TEMP:  76;

BEAUFORT ARPT  FAIR      77  73  88 W9        29.99R
HILTON HEAD IS SUNNY     75  72  88 SW14      30.01R
GEORGETOWN     NOT AVBL
WALTERBORO     SUNNY     77 N/A N/A W6        29.99R
ORANGEBURG     SUNNY     73  71  93 CALM      29.97R
6HR MIN TEMP:  72; 6HR MAX TEMP:  74;

BARNWELL       FAIR      73  73 100 SW6       29.98S
AIKEN          FAIR      73  73 100 W5        30.01R
MANNING        FAIR      77 N/A N/A W5        29.96R
KINGSTREE      NOT AVBL
COLUMBIA       MOSUNNY   74  70  87 CALM      29.95R
6HR MIN TEMP:  72; 6HR MAX TEMP:  77;

SUMTER         SUNNY     75  72  91 W3        29.94R
6HR MIN TEMP:  72; 6HR MAX TEMP:  76;

FLORENCE       MOSUNNY   76  74  93 CALM      29.95R FOG
6HR MIN TEMP:  72; 6HR MAX TEMP:  75; 6HR PCP: TRACE;

MYRTLE BEACH   SUNNY     75  72  88 NW6       29.94R
N MYRTLE BEACH SUNNY     76  74  93 W3        29.93R
6HR MIN TEMP:  75; 6HR MAX TEMP:  76;


$$

GAZ063-065-086>088-099>101-113>116-118-119-134-136>141-150-201300-
...GEORGIA...

CITY           SKY/WX    TMP DP  RH WIND       PRES   REMARKS
SAVANNAH ARPT  SUNNY     74  70  87 W9        30.01R
6HR MIN TEMP:  73; 6HR MAX TEMP:  74;

HUNTER AAF     SUNNY     75  71  87 W10       29.99R
6HR MIN TEMP:  72; 6HR MAX TEMP:  75;

FORT STEWART   SUNNY     75  71  85 W9        30.00R
6HR MIN TEMP:  72; 6HR MAX TEMP:  75;

STATESBORO     NOT AVBL
SYLVANIA       SUNNY     74  74  99 W5        30.01R
CLAXTON        FAIR      75  75 100 W5        30.02R
THOMSON        SUNNY     76  76  99 W3        30.05R
AUGUSTA-BUSH   SUNNY     74  72  93 CALM      29.97R
6HR MIN TEMP:  70; 6HR MAX TEMP:  74;

AUGUSTA-DANIEL SUNNY     76  72  87 W5        29.99R
SWAINSBORO     FAIR      73  73 100 W3        30.02R
VIDALIA          N/A     73  72  94 W5        30.03R
ALMA           SUNNY     72  70  93 W3        30.03R
6HR MIN TEMP:  70; 6HR MAX TEMP:  72;

WAYCROSS       SUNNY     79  75  87 W7        30.04R
JESUP            N/A     77  73  88 W3        30.03R
BRUNSWICK      PTSUNNY   79  72  78 W7        30.04R
SAINT SIMONS   MOSUNNY   76  73  91 W10       30.02R
6HR MIN TEMP:  76; 6HR MAX TEMP:  77;


$$

SCZ027-028-034-036>038-045-046-048>050-GAZ119-141-201300-
...LAKE AND SUPPLEMENTAL COASTAL OBSERVATIONS...

STATION/POSITION TIME  TEMP    WIND        PRES    WAVE   SWELL
                       AIR SEA DIR/SP/G            HT/PER HT/PER/DIR
                 (UTC) (F)     (DEG/KT/KT) (MB)    (FT/S) (FT/S/D)
UPR LAKE MARION  NOT AVBL
WINYAH BAY       1200   76     280/  4     1014.0R
LAKE MURRAY      1200   75      CALM  /  3 1013.9R
ACE BASIN NERRS  1200   75     260/  3     1015.0S
FORT PULASKI     1200   77     260/ 10/ 14 1016.1R
SAPELO ISLAND    1200   77     250/  8     1017.0R

$$

ANZ835-935-AMZ111-154-330-350-352-354-374-450-454-472-201300-
...C-MAN AND BUOY OBSERVATIONS...

STATION/POSITION TIME  TEMP    WIND        PRES    WAVE   SWELL
                       AIR SEA DIR/SP/G            HT/PER HT/PER/DIR
                 (UTC) (F)     (DEG/KT/KT) (MB)    (FT/S) (FT/S/D)
FOLLY BEACH CMAN 1200   76     280/  4/  7 1015.2R
BUOY 41004       1200   81 83  260/ 12/ 14 1013.8R   4/ 5   2/ 6
BUOY 41008       1200   80 85  270/ 14/ 16 1015.9R   2/ 3   2/120/ 8
5E ST. MARYS GA  1200      81                N/A     2/ 2
FRYING PAN BUOY  NOT AVBL
BUOY 41025       1200   78     320/  8/ 12 1012.6R   2/ 7   2/190/ 7
CAPE LOOKOUT NC  1200   77     350/  8/ 10 1013.3R
BUOY 41002       1149   82 81  240/ 19/ 23 1014.9R   6/ 6   2/120/10
BUOY 41010       1200   81 85  240/ 12/ 14 1017.6F   3/ 4   2/140/ 8
BUOY 41012       NOT AVBL
ST AUGUSTINE FL  1200   80     260/  3/  4 1018.0R
CAPERS NEARSHORE 1100   78     280/ 12/ 14   N/A
FRIPP NEARSHORE  NOT AVBL


$$


USA.gov is the U.S. government's official web portal to all federal, state and local government web resources and services.